Regional Weather Roundup
Issued by NWS

Home | Current Version | Previous Version | Text Only | Print | Product List | Glossary On
Versions: 1 2 3 4 5 6 7 8 9 10 11 12 13 14 15 16 17 18 19 20 21 22 23 24 25 26 27 28 29 30 31 32 33 34 35 36 37 38 39 40 41 42 43 44 45 46 47 48 49
000
ASUS45 KREV 090210
RWRNV
NEVADA REGIONAL WEATHER ROUNDUP
NATIONAL WEATHER SERVICE RENO NV
600 PM PST MON FEB 08 2016

NOTE: "FAIR" INDICATES FEW OR NO CLOUDS BELOW 12,000 FEET WITH NO
SIGNIFICANT WEATHER AND/OR OBSTRUCTIONS TO VISIBILITY.

NVZ001-003-004-090300-
WESTERN NEVADA

CITY           SKY/WX    TMP DP  RH WIND       PRES   REMARKS
RENO           CLEAR     48  29  47 E7        30.50S
CARSON CITY    FAIR      41  32  70 E7        30.53R
MINDEN         FAIR      41  32  70 NW8       30.53R
SLIDE MTN        N/A     37  18  44 SE32        N/A
FALLON         CLEAR     43  35  73 CALM      30.52S
LOVELOCK       CLEAR     44  33  65 S9        30.51S
HAWTHORNE      CLEAR     43  36  75 CALM      30.53F
$$

NVZ002-CAZ072-073-090300-
NORTHERN AND CENTRAL SIERRA

CITY           SKY/WX    TMP DP  RH WIND       PRES   REMARKS
S. LAKE TAHOE  CLEAR     37  28  70 CALM      30.48R
TRUCKEE        CLEAR     41  30  65 CALM      30.50S
SQUAW VLY 8000   N/A     34  23  64 SE5         N/A
SUSANVILLE     CLEAR     45  34  65 SE7       30.49F
BLUE CANYON    CLEAR     55  21  26 NE8       30.37F
MAMMOTH LAKES  FAIR      39  23  52 CALM      30.54R
BRIDGEPORT     FAIR      37  27  67 CALM      30.50R
$$

NVZ030-031-036-090300-
NORTHERN NEVADA

CITY           SKY/WX    TMP DP  RH WIND       PRES   REMARKS
ELKO           CLEAR     25  18  74 E7        30.61R
WINNEMUCCA     CLEAR     41  29  62 NE12      30.53F
WENDOVER       CLEAR     34  27  75 CALM      30.63R
$$

NVZ035-037-090300-
CENTRAL NEVADA

CITY           SKY/WX    TMP DP  RH WIND       PRES   REMARKS
ELY            CLEAR     23  18  81 S12       30.59S
EUREKA           N/A     20  14  77 SW5       30.59S
$$

NVZ013-014-090300-
SOUTH CENTRAL NEVADA

CITY           SKY/WX    TMP DP  RH WIND       PRES   REMARKS
TONOPAH        CLEAR     38  30  73 N9        30.52F
$$

NVZ017-020-022-090300-
SOUTHERN NEVADA

CITY           SKY/WX    TMP DP  RH WIND       PRES   REMARKS
LAS VEGAS      CLEAR     68  27  21 CALM      30.29S
N. LAS VEGAS   CLEAR     69  25  19 N10       30.32S
NELLIS AFB     CLEAR     71  28  20 NW8G21    30.31S
HENDERSON      CLEAR     64  28  25 E6        30.35S
MERCURY        CLEAR     60  28  29 NE14      30.37R
$$



USA.gov is the U.S. government's official web portal to all federal, state and local government web resources and services.